sat.trackr.live / text

‹ back to catalog

ORBCOMM FM117

NORAD 41188 · 2015-081K

PAYLOAD ACTIVE UNKNOWN

§ Identity

Operator
Country
ORB
Launch date
2015-12-22
Launch site
AFETR
Launch vehicle
Mass (kg)
RCS (m²)
0.54

Purposes: comms

External: N2YO · Heavens-Above · Gunter

§ Orbital elements

Epoch: 2026-05-25T02:29:50.777088Z

Period
98.71 min
Inclination
47.0017°
Eccentricity
0.0002409
Mean motion
14.58830341 rev/d
Perigee alt
695.2 km
Apogee alt
698.7 km
Semi-major
7,075.1 km
B*
1.3868e-4
RAAN
289.9716°
Arg perigee
109.6740°
Mean anomaly
250.4406°
Rev number
55,675

§ Raw data

ORBCOMM FM1171 41188U 15081K   26145.10405992  .00000484  00000+0  13868-3 0  99992 41188  47.0017 289.9716 0002409 109.6740 250.4406 14.58830341556753

JSON: /api/v1/satellites/41188 · /tle

For live sub-satellite position, see the globe view (requires WebGL).

§ Visibility from observer

Set your observer location to see the next 7 days of passes ≥ 10°. The values pass through the URL so the page stays shareable.

No JS? Fill the form by hand. The geolocation button needs JavaScript.

§ Radio — SatNOGS DB

ModeDescriptionDownlinkUplink
FM Telemetry 137.460 MHz
FM Telemetry 137.713 MHz

2 transmitters · refreshed weekly from db.satnogs.org